{"data":{"norad_id":40351,"epoch":"2026-09-19T18:34:35.105088Z","epoch_age_seconds":77140,"freshness":"FRESH","line1":"1 40351U 14083D   26262.77401742 -.00000027  00000+0  00000+0 0  9997","line2":"2 40351   0.0539 346.8078 0002608 189.6720 183.5243  5.00116172214799","mean_motion":5.00116172,"eccentricity":0.0002608,"inclination_deg":0.0539,"raan_deg":346.8078,"arg_perigee_deg":189.672,"mean_anomaly_deg":183.5243,"bstar":0,"rev_number":21479,"period_min":287.9331004717,"perigee_km":8062.110280519,"apogee_km":8069.6442783672,"semimajor_km":14444.014279443,"source":"CELESTRAK","updated_at":"2026-09-20T09:00:35.684047Z"}}